Temp
77 77 77 77 77 77 76 76 76 77 77 78 78 78 78 79 79 80 80 79 79 79 78 77 77 78 81 79 78 78 78 78 79 78 78 78 77 78 82 80 79 77
77 77 77 77 76 76 76 77 77 77 76 75 78 78 78 79 79 80 79 79 79 79 78 78 78 77 78 79 78 78 77 77 78 82 78 77 77 78 80 79 80 78
75 77 77 76 76 76 77 77 77 76 76 76 77 77 78 80 80 79 79 80 79 80 78 78 78 77 79 79 79 79 79 77 77 79 77 77 78 78 78 80 79 80
73 75 77 77 77 77 77 76 76 76 76 75 76 79 80 82 81 80 78 80 79 79 79 78 78 80 80 80 79 79 78 77 79 78 77 76 77 79 79 78 79 80
74 75 77 77 77 77 76 76 76 76 77 76 77 77 78 78 79 81 79 79 78 79 78 78 77 79 79 78 79 78 78 78 77 77 76 76 77 78 80 79 78 79
74 74 75 77 76 76 76 76 77 77 77 76 76 77 78 77 78 80 79 80 80 81 81 80 79 79 80 79 79 79 80 79 79 76 76 76 77 78 82 81 79 79
72 72 73 75 77 77 76 76 76 77 77 77 76 75 77 77 77 78 79 79 80 80 81 79 78 78 79 79 78 78 78 78 78 76 76 76 76 77 79 80 79 78
72 72 73 74 74 75 75 76 76 76 77 76 77 75 77 78 77 79 79 80 80 80 80 81 78 77 79 79 78 78 79 81 79 76 75 76 75 76 77 80 78 76
73 72 73 75 76 74 75 76 77 76 77 77 77 76 77 78 78 79 78 80 80 80 79 80 78 79 79 79 79 79 79 81 82 78 77 77 77 76 78 77 77 76
72 73 73 73 74 74 75 75 75 76 77 77 76 75 76 77 78 79 78 77 79 80 79 80 79 80 80 80 79 80 80 79 80 79 78 78 78 78 78 78 79 77
72 72 73 73 73 73 74 74 74 76 76 77 75 75 76 76 77 78 78 77 79 79 80 80 80 80 80 80 81 81 81 81 81 79 78 78 78 78 80 78 78 78
72 73 73 73 73 72 72 74 73 74 75 76 75 75 75 77 77 78 78 77 78 80 80 81 80 80 80 81 81 81 81 82 82 81 80 79 78 78 79 79 79 78
72 73 73 72 72 72 72 72 73 73 74 75 75 75 74 75 76 77 78 78 78 79 80 80 80 80 79 80 81 81 81 80 81 81 81 80 79 78 79 79 80 80
71 71 72 72 72 72 72 73 72 73 73 74 74 72 73 74 76 77 78 78 77 78 79 80 79 80 78 79 80 82 81 80 80 80 81 80 80 78 79 79 79 80
70 70 71 72 72 71 72 72 72 73 73 73 74 74 75 74 74 76 77 77 78 78 79 80 80 80 81 80 79 80 81 80 80 80 80 79 79 79 78 79 80 80
70 71 71 70 70 70 71 71 72 72 72 72 73 74 75 74 73 74 76 77 76 77 78 80 81 83 82 81 80 81 80 82 80 79 79 78 78 77 78 78 79 80
70 70 71 70 70 70 71 71 71 72 71 71 72 73 73 73 73 73 74 76 77 77 77 79 81 84 81 74 74 78 81 79 78 77 77 77 78 77 77 78 78 80
71 71 71 70 70 70 71 71 71 71 71 71 71 71 71 72 72 72 73 74 75 76 77 77 77 80 74 73 73 74 80 81 79 78 78 77 78 78 78 78 78 78
71 71 71 71 71 70 71 71 71 71 71 71 71 71 72 71 71 71 72 72 74 74 75 77 77 77 71 71 72 72 73 81 80 79 79 77 77 78 78 77 77 77
71 71 71 71 71 71 71 71 71 71 71 71 71 71 71 71 71 72 72 71 73 73 74 75 75 78 72 69 69 70 71 75 80 79 79 79 77 77 77 77 76 76
71 71 71 71 71 71 70 71 71 71 71 71 71 70 70 71 71 72 72 72 72 73 74 75 78 74 71 69 67 67 69 74 79 81 80 79 78 77 77 77 77 77
70 69 71 71 70 70 70 70 70 70 71 72 71 71 71 70 71 72 72 72 72 73 73 73 77 72 70 69 66 65 68 74 75 76 77 78 78 77 77 77 77 77
69 70 70 71 70 70 69 70 70 70 70 72 71 70 70 70 71 71 72 73 73 73 73 73 75 73 68 68 66 64 69 72 72 73 74 74 75 75 75 76 76 77
69 70 70 71 70 70 70 70 70 70 70 72 70 69 69 70 71 72 72 73 74 74 75 74 76 77 69 65 65 65 72 73 72 72 73 73 75 76 75 75 76 81
70 69 70 70 70 71 71 70 70 70 71 71 70 70 70 70 73 71 71 72 72 74 78 77 76 77 68 63 63 62 69 73 72 71 72 72 73 74 75 75 76 78
70 70 70 70 69 69 69 70 71 71 70 71 71 71 71 70 72 72 71 71 72 73 75 76 75 74 72 61 61 60 64 73 72 71 71 72 72 73 73 73 74 76
MSLP
1012.42 1012.86 1013.22 1013.50 1013.78 1013.90 1014.18 1014.50 1014.66 1014.94 1015.14 1015.18 1015.42 1015.50 1015.54 1015.50 1015.46 1015.62 1015.74 1015.86 1016.02 1016.22 1016.34 1016.42 1016.46 1016.66 1016.70 1016.74 1016.86 1017.14 1017.26 1017.30 1017.42 1017.50 1017.62 1017.74 1017.94 1018.06 1018.14 1018.10 1018.06 1018.22
1012.14 1012.46 1012.86 1013.22 1013.62 1013.78 1013.98 1014.06 1014.34 1014.62 1014.90 1014.98 1015.02 1015.14 1015.22 1015.30 1015.38 1015.46 1015.70 1015.86 1015.94 1016.10 1016.18 1016.30 1016.42 1016.50 1016.66 1016.74 1016.90 1017.14 1017.30 1017.38 1017.54 1017.34 1017.66 1017.82 1017.86 1017.94 1018.02 1017.94 1017.94 1017.90
1012.22 1012.38 1012.74 1013.18 1013.50 1013.70 1013.86 1013.98 1014.14 1014.38 1014.66 1014.78 1014.82 1014.94 1015.10 1015.06 1015.30 1015.38 1015.54 1015.70 1015.90 1016.02 1016.14 1016.22 1016.34 1016.42 1016.58 1016.66 1016.78 1016.98 1017.18 1017.38 1017.54 1017.42 1017.58 1017.78 1017.78 1017.94 1017.86 1017.78 1017.86 1017.86
1012.50 1012.42 1012.54 1012.82 1013.06 1013.42 1013.62 1013.94 1014.18 1014.34 1014.50 1014.78 1014.82 1014.78 1014.82 1014.90 1015.06 1015.34 1015.50 1015.58 1015.78 1015.94 1016.02 1016.14 1016.22 1016.26 1016.46 1016.62 1016.78 1016.94 1016.98 1017.10 1017.14 1017.30 1017.58 1017.66 1017.74 1017.78 1017.82 1017.74 1017.78 1017.82
1012.26 1012.26 1012.26 1012.54 1012.82 1013.10 1013.42 1013.82 1014.10 1014.22 1014.38 1014.50 1014.58 1014.66 1014.74 1014.86 1015.06 1015.22 1015.42 1015.54 1015.66 1015.86 1015.98 1016.14 1016.14 1016.22 1016.30 1016.54 1016.66 1016.94 1016.94 1017.06 1017.10 1017.22 1017.54 1017.78 1017.66 1017.74 1017.70 1017.78 1017.94 1017.98
1012.22 1012.54 1012.46 1012.34 1012.66 1012.98 1013.42 1013.66 1013.82 1013.98 1014.18 1014.46 1014.54 1014.54 1014.62 1014.70 1014.94 1015.10 1015.30 1015.46 1015.58 1015.70 1015.86 1015.94 1016.14 1016.18 1016.22 1016.38 1016.58 1016.74 1016.86 1017.02 1017.06 1017.18 1017.50 1017.74 1017.70 1017.54 1017.58 1017.66 1017.86 1017.98
1012.50 1012.78 1013.10 1012.78 1012.62 1012.82 1013.18 1013.42 1013.58 1013.74 1013.94 1014.06 1014.26 1014.54 1014.50 1014.74 1014.86 1014.98 1015.14 1015.26 1015.42 1015.58 1015.70 1015.86 1016.02 1016.14 1016.14 1016.30 1016.50 1016.70 1016.74 1016.82 1016.90 1017.10 1017.38 1017.58 1017.62 1017.62 1017.46 1017.54 1017.66 1017.78
1012.42 1012.74 1012.98 1013.10 1013.26 1012.98 1013.10 1013.26 1013.46 1013.66 1013.78 1014.02 1014.26 1014.30 1014.34 1014.58 1014.74 1014.78 1014.90 1015.06 1015.30 1015.42 1015.54 1015.62 1015.82 1015.94 1016.02 1016.22 1016.46 1016.66 1016.74 1016.66 1016.86 1017.06 1017.30 1017.42 1017.54 1017.70 1017.54 1017.50 1017.50 1017.62
1012.02 1012.38 1012.50 1012.62 1012.66 1012.90 1013.10 1013.18 1013.30 1013.46 1013.58 1013.94 1014.10 1014.22 1014.22 1014.34 1014.54 1014.66 1014.78 1014.90 1015.10 1015.26 1015.38 1015.50 1015.62 1015.78 1015.86 1016.06 1016.26 1016.46 1016.62 1016.66 1016.62 1016.86 1017.14 1017.38 1017.54 1017.58 1017.54 1017.42 1017.58 1017.62
1012.02 1012.22 1012.38 1012.46 1012.54 1012.62 1012.90 1013.02 1013.14 1013.38 1013.46 1013.70 1013.86 1013.98 1014.22 1014.22 1014.26 1014.50 1014.66 1014.86 1015.02 1015.14 1015.26 1015.34 1015.50 1015.58 1015.70 1015.82 1016.02 1016.18 1016.38 1016.54 1016.54 1016.66 1016.86 1017.06 1017.22 1017.30 1017.38 1017.42 1017.50 1017.62
1011.90 1012.02 1012.22 1012.42 1012.50 1012.62 1012.82 1012.98 1013.10 1013.26 1013.38 1013.54 1013.66 1013.90 1013.94 1014.10 1014.26 1014.26 1014.58 1014.78 1014.94 1014.98 1015.10 1015.18 1015.26 1015.34 1015.58 1015.70 1015.74 1015.82 1016.02 1016.22 1016.38 1016.50 1016.62 1016.74 1016.86 1016.94 1017.02 1017.14 1017.30 1017.38
1011.90 1012.10 1012.30 1012.42 1012.54 1012.74 1012.94 1013.02 1013.14 1013.22 1013.34 1013.34 1013.42 1013.66 1013.82 1013.94 1014.18 1014.26 1014.38 1014.66 1014.66 1014.66 1014.74 1014.82 1014.90 1015.06 1015.26 1015.42 1015.54 1015.66 1015.82 1015.94 1016.06 1016.26 1016.34 1016.50 1016.58 1016.62 1016.66 1016.74 1016.98 1017.06
1011.86 1012.06 1012.22 1012.34 1012.50 1012.62 1012.78 1012.98 1013.06 1013.14 1013.18 1013.30 1013.30 1013.46 1013.70 1013.94 1014.02 1014.18 1014.14 1014.26 1014.34 1014.38 1014.50 1014.54 1014.66 1014.78 1015.02 1015.14 1015.26 1015.42 1015.62 1015.86 1015.98 1016.06 1016.14 1016.22 1016.30 1016.30 1016.34 1016.42 1016.50 1016.58
1011.82 1011.90 1011.94 1011.98 1012.06 1012.34 1012.58 1012.74 1012.86 1012.98 1013.06 1013.10 1013.26 1013.78 1013.90 1013.74 1013.86 1013.94 1013.94 1013.94 1014.02 1014.14 1014.18 1014.22 1014.42 1014.62 1014.78 1014.90 1015.02 1015.14 1015.38 1015.62 1015.74 1015.90 1015.98 1016.06 1016.06 1016.06 1016.10 1016.22 1016.26 1016.26
1011.14 1011.18 1011.26 1011.30 1011.42 1011.82 1012.18 1012.42 1012.58 1012.74 1012.86 1012.98 1013.14 1013.38 1013.62 1013.62 1013.54 1013.58 1013.78 1013.86 1013.86 1013.94 1014.02 1014.02 1014.18 1014.38 1014.46 1014.62 1014.86 1014.98 1015.06 1015.34 1015.46 1015.58 1015.74 1015.90 1015.94 1015.94 1015.94 1015.98 1016.06 1016.06
1011.06 1011.22 1011.34 1011.58 1011.98 1012.06 1012.06 1012.22 1012.42 1012.58 1012.70 1012.86 1012.86 1012.94 1013.14 1013.34 1013.50 1013.46 1013.50 1013.58 1013.78 1013.82 1013.90 1013.94 1013.98 1013.94 1013.98 1014.10 1014.30 1014.58 1014.82 1014.94 1015.10 1015.26 1015.38 1015.54 1015.74 1015.86 1015.90 1015.86 1015.82 1015.82
1011.14 1011.22 1011.30 1011.50 1011.66 1011.70 1011.78 1011.98 1012.14 1012.18 1012.42 1012.62 1012.74 1012.82 1012.94 1013.06 1013.18 1013.38 1013.38 1013.34 1013.50 1013.70 1013.86 1013.86 1013.74 1013.58 1013.62 1013.82 1014.02 1014.14 1014.38 1014.66 1014.86 1015.02 1015.06 1015.26 1015.42 1015.62 1015.78 1015.78 1015.66 1015.54
1011.10 1011.22 1011.38 1011.30 1011.22 1011.54 1011.70 1011.78 1011.98 1012.14 1012.38 1012.54 1012.66 1012.78 1012.82 1012.86 1013.06 1013.14 1013.18 1013.26 1013.34 1013.50 1013.62 1013.66 1013.66 1013.46 1013.42 1013.54 1013.74 1013.90 1013.98 1014.22 1014.46 1014.70 1014.86 1015.02 1015.14 1015.26 1015.34 1015.46 1015.50 1015.46
1011.14 1011.34 1011.38 1011.22 1011.06 1011.22 1011.38 1011.58 1011.82 1012.06 1012.26 1012.42 1012.58 1012.50 1012.62 1012.82 1012.90 1012.98 1013.10 1013.14 1013.26 1013.42 1013.54 1013.46 1013.50 1013.38 1013.46 1013.38 1013.42 1013.62 1013.74 1013.82 1014.06 1014.26 1014.54 1014.70 1014.82 1014.90 1015.02 1015.14 1015.22 1015.30
1011.02 1011.18 1011.26 1011.18 1011.10 1011.18 1011.34 1011.58 1011.82 1011.98 1011.98 1012.06 1012.22 1012.42 1012.58 1012.66 1012.74 1012.86 1012.94 1013.10 1013.14 1013.22 1013.30 1013.30 1013.34 1013.22 1013.26 1013.38 1013.34 1013.34 1013.46 1013.62 1013.74 1013.94 1014.14 1014.26 1014.42 1014.50 1014.62 1014.74 1014.86 1015.02
1010.98 1011.10 1011.18 1011.22 1011.26 1011.30 1011.42 1011.58 1011.78 1011.90 1011.94 1011.94 1012.06 1012.30 1012.50 1012.54 1012.58 1012.74 1012.78 1012.86 1012.98 1013.06 1013.18 1013.26 1013.14 1012.98 1013.10 1013.14 1013.26 1013.22 1013.26 1013.46 1013.50 1013.62 1013.82 1013.98 1014.06 1014.10 1014.18 1014.26 1014.34 1014.42
1010.86 1011.10 1011.10 1011.18 1011.38 1011.54 1011.62 1011.74 1011.82 1011.86 1011.94 1011.90 1011.98 1012.06 1012.10 1012.14 1012.26 1012.34 1012.54 1012.70 1012.78 1012.94 1013.06 1013.18 1012.94 1012.86 1012.94 1012.98 1013.14 1013.10 1013.14 1013.50 1013.58 1013.70 1013.82 1013.82 1013.86 1013.86 1013.90 1013.90 1013.94 1014.06
1010.62 1010.86 1010.98 1011.06 1011.22 1011.46 1011.62 1011.62 1011.66 1011.74 1011.78 1011.70 1011.98 1011.98 1012.06 1012.14 1012.14 1012.18 1012.18 1012.38 1012.58 1012.74 1012.94 1012.98 1012.86 1012.70 1012.74 1012.78 1012.86 1012.90 1013.18 1013.46 1013.66 1013.82 1013.90 1013.94 1013.86 1013.70 1013.70 1013.70 1013.74 1013.74
1010.42 1010.66 1010.82 1010.90 1011.02 1011.26 1011.30 1011.30 1011.26 1011.26 1011.46 1011.46 1011.78 1011.94 1012.06 1011.98 1011.94 1012.06 1012.10 1012.10 1012.26 1012.42 1012.42 1012.70 1012.66 1012.46 1012.50 1012.50 1012.46 1012.50 1012.70 1013.10 1013.38 1013.66 1013.82 1013.86 1013.74 1013.58 1013.54 1013.54 1013.46 1013.42
1010.26 1010.50 1010.74 1010.82 1010.94 1011.02 1011.06 1011.22 1011.22 1011.18 1011.14 1011.22 1011.42 1011.58 1011.74 1011.78 1011.82 1011.94 1012.02 1011.98 1011.98 1012.06 1012.06 1012.30 1012.38 1012.26 1012.22 1012.30 1012.22 1012.30 1012.54 1012.74 1013.06 1013.38 1013.62 1013.70 1013.70 1013.62 1013.38 1013.34 1013.30 1013.18
1010.18 1010.34 1010.50 1010.70 1010.86 1010.90 1010.94 1010.98 1010.98 1011.10 1011.14 1011.22 1011.30 1011.34 1011.50 1011.58 1011.66 1011.78 1011.94 1011.90 1011.82 1011.86 1011.98 1011.98 1012.18 1012.18 1012.14 1012.34 1012.38 1012.46 1012.54 1012.70 1012.94 1013.30 1013.50 1013.46 1013.46 1013.46 1013.50 1013.30 1013.18 1013.10
Wind_Speed
11 9 10 10 9 9 10 10 9 9 9 8 9 8 9 7 7 9 8 7 7 7 5 4 4 4 5 4 5 4 4 6 5 5 4 4 3 4 5 4 3 3
11 10 9 8 8 7 8 9 9 9 9 8 8 7 6 7 7 8 8 7 6 7 5 5 4 4 4 4 5 6 5 4 5 3 4 4 4 4 5 4 5 3
5 10 10 10 10 10 10 8 8 7 8 7 6 6 7 7 8 6 8 8 7 7 6 5 5 4 4 4 5 6 6 5 5 4 4 5 4 4 5 5 4 4
5 6 9 9 9 10 8 7 6 6 6 6 7 7 7 7 7 8 7 8 7 7 6 5 5 5 4 5 5 5 6 6 6 5 4 3 3 4 5 4 4 4
9 8 9 8 8 7 7 8 8 7 7 7 6 6 6 6 7 8 7 7 7 7 6 6 5 5 5 5 6 6 5 6 4 4 5 4 4 4 5 4 4 5
5 2 3 9 8 8 8 8 8 8 7 7 7 6 6 5 6 7 7 8 7 8 8 7 6 5 6 5 6 6 6 6 5 5 4 5 5 4 4 5 5 6
5 4 3 2 7 8 8 7 7 7 7 7 5 6 6 5 5 6 6 7 8 8 8 7 7 6 6 5 6 6 5 5 5 5 5 4 4 4 4 4 6 6
9 6 5 5 7 7 8 7 7 6 6 5 8 6 6 6 6 4 5 7 7 8 7 8 7 6 6 6 6 6 5 5 5 5 5 5 4 5 5 5 4 5
9 9 9 9 8 7 8 8 8 7 7 8 8 7 6 6 6 6 4 6 7 7 7 7 7 7 6 6 6 7 6 6 6 6 6 6 6 6 6 5 4 4
7 8 9 7 8 7 8 8 8 7 7 8 7 7 8 7 6 6 5 5 7 8 8 7 7 8 7 7 7 7 7 7 6 6 6 7 7 7 6 6 6 5
8 6 7 7 7 5 6 6 6 7 7 8 8 8 8 7 7 6 6 5 7 7 9 9 8 9 8 9 8 7 8 8 8 7 7 7 7 7 7 7 7 7
8 7 6 7 6 5 4 4 5 5 5 6 7 9 8 8 9 7 7 7 6 6 8 9 9 9 9 9 9 8 8 8 8 8 8 8 7 7 7 7 8 8
7 5 5 5 6 6 6 5 6 6 6 6 5 7 8 8 8 8 8 6 6 5 7 8 8 8 8 9 9 9 9 9 9 9 9 8 7 7 7 7 8 8
5 6 7 7 7 7 7 7 7 7 7 5 4 3 5 8 9 9 9 7 6 5 4 5 6 7 7 8 8 9 8 8 9 9 9 8 8 7 7 7 8 8
8 6 4 6 7 7 6 6 7 6 6 6 7 9 8 7 8 9 9 8 7 6 5 5 6 7 7 7 7 8 8 8 8 9 9 9 8 7 7 7 7 7
7 6 6 5 4 5 7 7 7 6 6 7 8 8 9 8 7 7 8 9 9 8 6 5 5 6 9 13 11 8 8 8 7 7 8 8 8 7 7 7 8 8
7 8 7 8 8 8 8 8 8 8 8 7 7 8 8 9 9 9 9 8 9 9 9 6 6 7 13 14 14 15 10 8 7 7 6 7 7 7 7 7 7 8
8 7 7 8 8 8 7 7 7 8 8 8 8 8 7 7 8 9 9 8 8 8 9 7 5 7 13 16 16 16 14 9 7 7 6 7 7 7 7 7 8 8
6 7 7 8 8 7 7 6 7 7 8 9 10 9 7 7 7 7 8 8 8 8 8 8 7 9 11 14 17 17 18 15 8 9 8 7 7 8 7 8 7 7
6 6 7 7 6 6 6 6 7 8 9 9 8 7 8 7 6 7 6 6 7 7 7 6 7 9 12 12 15 17 17 15 9 9 9 8 8 8 7 8 8 8
5 5 5 5 5 6 6 7 8 7 9 8 8 8 9 9 8 7 6 6 6 6 6 7 7 10 11 13 14 15 16 14 9 8 8 8 8 8 8 8 8 8
5 5 5 5 5 5 6 6 7 8 9 8 7 7 7 7 7 7 7 6 6 6 6 7 6 9 12 13 13 13 13 8 6 6 7 7 7 7 7 7 7 8
5 6 5 6 6 6 7 6 6 7 6 5 6 6 7 7 8 8 7 7 7 6 7 6 6 9 12 15 14 13 8 5 5 5 5 6 6 5 5 6 6 7
4 5 5 5 6 6 7 6 5 4 4 4 5 5 6 6 5 5 5 6 7 7 7 7 7 9 14 14 14 12 10 7 6 6 7 7 8 7 6 6 7 12
3 3 4 4 5 5 5 5 6 6 4 4 4 3 3 3 4 4 3 3 4 4 8 8 7 7 11 12 12 11 9 5 6 6 6 6 6 7 7 7 7 9
3 3 3 4 4 3 3 4 3 3 4 5 4 4 4 4 4 4 3 2 1 3 4 6 7 6 3 6 6 6 7 3 3 4 6 6 6 6 6 6 7 7
Wind_Direction
173 172 175 178 178 179 176 174 177 177 183 183 181 182 184 179 175 177 183 180 182 189 191 195 205 189 175 171 180 194 191 186 182 180 199 199 214 219 247 258 258 217
172 166 172 171 171 173 177 177 175 176 178 182 182 171 175 174 174 171 179 181 183 191 194 198 207 201 169 175 174 183 196 184 188 181 188 208 227 219 237 248 259 263
157 164 164 169 173 175 175 175 173 173 173 176 171 165 171 177 174 166 176 181 183 187 191 201 210 213 178 180 176 182 184 184 194 192 175 204 222 222 237 245 255 261
181 180 166 166 168 170 166 163 167 165 163 163 176 175 171 176 178 172 173 182 183 187 188 193 209 216 194 181 181 185 180 185 194 181 188 214 219 219 234 237 249 267
171 185 169 160 158 155 157 166 170 170 174 172 168 170 172 164 175 181 177 184 184 190 187 193 201 218 208 181 187 189 183 187 188 175 185 209 226 214 236 229 241 252
171 162 191 155 154 152 159 169 173 175 174 168 176 171 175 163 173 179 180 184 189 193 193 194 196 205 205 190 185 192 185 185 188 176 182 205 223 221 229 228 231 240
158 128 181 168 154 158 162 169 174 177 180 179 163 179 174 173 175 183 175 180 184 195 195 192 194 197 194 185 180 187 185 187 183 184 195 212 216 239 241 232 223 229
162 180 191 182 174 170 167 172 175 178 178 173 187 186 181 184 183 185 187 179 184 193 196 191 190 190 192 180 184 182 190 189 191 194 204 220 207 227 237 242 225 222
164 173 184 193 174 170 172 176 179 180 179 186 192 189 191 193 192 190 189 191 191 191 196 193 187 192 196 192 192 191 193 200 198 195 206 217 219 220 225 228 236 231
167 180 192 187 180 174 175 178 177 181 184 191 191 183 192 200 199 198 192 193 196 193 194 196 190 194 199 201 203 201 203 207 209 203 205 215 220 222 222 220 228 236
192 186 179 184 183 162 157 163 165 178 187 192 183 188 193 192 204 203 203 197 199 194 194 198 195 197 201 205 207 208 209 212 213 212 211 214 218 218 219 217 222 225
193 190 180 176 179 166 166 169 171 175 179 188 183 184 187 191 197 202 201 200 207 199 196 199 197 199 203 207 207 208 211 213 214 214 214 215 219 219 219 217 216 219
186 183 186 186 178 185 186 189 190 191 193 192 182 177 179 187 195 199 203 194 194 197 201 199 199 199 202 207 209 207 207 211 215 215 216 215 217 217 221 218 214 213
138 144 165 184 184 183 192 199 200 199 198 193 162 175 213 191 193 199 204 203 197 198 208 200 200 202 198 201 207 207 201 205 209 212 216 217 216 216 217 219 221 220
177 178 170 181 177 161 167 183 191 193 189 184 178 187 204 208 197 198 202 206 204 207 220 217 204 208 205 200 201 208 210 205 203 207 211 213 214 215 216 220 222 223
179 176 189 185 175 188 198 193 185 180 183 189 193 189 191 194 196 197 196 201 204 207 212 221 223 214 210 205 201 205 209 213 204 203 203 204 205 208 215 219 223 225
171 186 191 198 188 193 200 198 187 185 185 193 192 186 187 188 191 195 198 198 199 204 212 217 227 228 213 204 201 202 202 207 201 202 200 203 205 206 214 220 228 228
172 174 180 197 199 193 195 191 187 187 192 197 199 195 192 188 188 195 196 198 200 204 210 217 232 257 223 206 206 207 207 205 203 201 202 205 211 215 221 223 225 226
155 166 183 197 203 194 196 195 189 194 197 201 205 204 195 191 192 191 198 201 203 204 210 216 227 242 253 217 208 211 213 211 207 207 208 210 210 216 220 221 220 218
156 159 176 191 190 184 185 183 187 197 199 201 200 195 196 197 191 195 194 196 203 205 212 223 227 244 247 230 213 209 210 210 209 208 211 214 212 211 212 213 213 213
150 157 177 184 180 181 182 187 189 195 201 201 195 190 191 195 195 198 198 195 202 205 210 222 234 238 246 237 219 207 209 207 211 210 213 217 218 215 213 212 211 213
145 152 173 182 179 181 192 196 195 197 202 201 198 195 198 192 201 200 198 198 201 206 210 223 233 240 244 234 218 209 202 205 217 220 221 225 226 223 223 222 217 213
162 163 181 181 180 179 192 202 207 205 204 191 191 194 191 194 199 201 198 194 199 203 210 221 229 237 240 234 217 202 184 200 211 227 240 243 240 235 231 229 229 223
188 170 176 178 179 191 195 199 207 210 196 188 188 189 197 200 198 200 199 196 196 204 206 215 229 232 227 227 220 205 192 192 197 202 223 229 238 239 232 232 231 229
194 173 170 173 183 193 192 188 194 200 188 177 186 194 207 184 195 198 209 216 215 215 222 223 232 234 219 217 208 192 186 185 180 189 209 222 224 236 233 231 234 235
173 180 173 174 177 175 173 179 176 170 179 176 181 178 190 188 198 191 203 217 213 215 225 229 231 236 188 190 215 206 201 187 182 188 219 228 227 230 239 242 235 239